TimeEST,TemperatureF,Dew PointF,Humidity,Sea Level PressureIn,VisibilityMPH,Wind Direction,Wind SpeedMPH,Gust SpeedMPH,PrecipitationIn,Events,Conditions,WindDirDegrees,DateUTC
12:53 AM,39.9,21.0,47,29.67,10.0,West,9.2,-,N/A,,Clear,270,2012-03-04 05:53:00
1:53 AM,39.9,17.1,40,29.64,10.0,WNW,17.3,26.5,N/A,,Clear,290,2012-03-04 06:53:00
2:53 AM,37.0,17.1,44,29.65,10.0,West,8.1,-,N/A,,Clear,260,2012-03-04 07:53:00
3:53 AM,36.0,17.1,46,29.66,10.0,WSW,5.8,-,N/A,,Clear,240,2012-03-04 08:53:00
4:53 AM,33.1,17.1,52,29.67,10.0,Calm,Calm,-,N/A,,Clear,0,2012-03-04 09:53:00
5:53 AM,30.0,21.0,69,29.67,10.0,Calm,Calm,-,N/A,,Clear,0,2012-03-04 10:53:00
6:53 AM,30.9,21.0,67,29.67,10.0,Calm,Calm,-,N/A,,Clear,0,2012-03-04 11:53:00
7:53 AM,35.1,19.0,52,29.67,10.0,Calm,Calm,-,N/A,,Clear,0,2012-03-04 12:53:00
8:53 AM,36.0,19.9,52,29.65,10.0,SW,4.6,-,N/A,,Clear,230,2012-03-04 13:53:00
9:53 AM,39.0,19.0,45,29.65,10.0,SW,5.8,-,N/A,,Clear,220,2012-03-04 14:53:00
10:53 AM,43.0,18.0,37,29.62,10.0,Variable,5.8,-,N/A,,Clear,0,2012-03-04 15:53:00
11:53 AM,43.0,16.0,34,29.60,10.0,Variable,3.5,-,N/A,,Partly Cloudy,0,2012-03-04 16:53:00
12:53 PM,43.0,16.0,34,29.59,10.0,WNW,6.9,-,N/A,,Overcast,290,2012-03-04 17:53:00
1:53 PM,43.0,16.0,34,29.56,10.0,West,12.7,17.3,N/A,,Overcast,280,2012-03-04 18:53:00
2:53 PM,43.0,16.0,34,29.56,10.0,West,10.4,-,N/A,,Overcast,280,2012-03-04 19:53:00
3:53 PM,42.1,16.0,35,29.58,10.0,West,9.2,-,N/A,,Mostly Cloudy,280,2012-03-04 20:53:00
4:53 PM,42.1,18.0,38,29.59,10.0,West,6.9,-,N/A,,Overcast,260,2012-03-04 21:53:00
5:53 PM,39.9,17.1,40,29.60,10.0,WNW,6.9,-,N/A,,Mostly Cloudy,290,2012-03-04 22:53:00
6:53 PM,37.9,19.0,47,29.62,10.0,WNW,5.8,-,N/A,,Overcast,300,2012-03-04 23:53:00
7:53 PM,37.0,19.9,50,29.65,10.0,WNW,8.1,-,N/A,,Overcast,300,2012-03-05 00:53:00
8:53 PM,35.1,19.9,54,29.67,10.0,West,3.5,-,N/A,,Scattered Clouds,260,2012-03-05 01:53:00
9:53 PM,34.0,21.0,59,29.69,10.0,WSW,6.9,-,N/A,,Overcast,250,2012-03-05 02:53:00
10:53 PM,32.0,18.0,56,29.71,10.0,WNW,9.2,-,N/A,,Clear,290,2012-03-05 03:53:00
11:53 PM,30.2,17.6,60,29.73,10.0,WSW,6.9,-,N/A,,Scattered Clouds,240,2012-03-05 04:53:00